Regional Weather Roundup
Issued by NWS

Home | Current Version | Previous Version | Graphics & Text | Print | Product List | Glossary On
Versions: 1 2 3 4 5 6 7 8 9 10 11 12 13 14 15 16 17 18 19 20 21 22 23 24 25 26 27 28 29 30 31 32 33 34 35 36 37 38 39 40 41 42 43 44 45 46 47 48 49 50
269
ASUS43 KFSD 280510
RWRSD

WEATHER ROUNDUP FOR SOUTH DAKOTA
NATIONAL WEATHER SERVICE SIOUX FALLS SD
1200 AM CDT TUE MAR 28 2017

NOTE: "FAIR" INDICATES FEW OR NO CLOUDS BELOW 12,000 FEET WITH NO
SIGNIFICANT WEATHER AND/OR OBSTRUCTIONS TO VISIBILITY.


SDZ001>005-009-010-012>017-280600-
NORTHWEST AND NORTH CENTRAL SOUTH DAKOTA

CITY           SKY/WX    TMP DP  RH WIND       PRES   REMARKS
BUFFALO          N/A     43  35  73 E10       29.88S
FAITH            N/A     44  35  70 MISG      29.97R
MOBRIDGE       CLEAR     42  33  70 E5        29.98R
$$

SDZ012>016-024>037-041>051-057-063-072>074-280600-
SOUTHWEST AND SOUTH CENTRAL SOUTH DAKOTA

CITY           SKY/WX    TMP DP  RH WIND       PRES   REMARKS
RAPID CTY ARPT CLOUDY    44  34  67 NE8       29.94R
PIERRE         CLEAR     40  31  70 E6        29.97R
CUSTER         CLOUDY    39  31  72 NE8       29.95R
ELLSWORTH AFB  MOCLDY    45  36  69 CALM      29.94R
PHILIP         PTCLDY    44  33  65 NE9       29.94S
PINE RIDGE     CLEAR     43  37  79 E9        29.89R
SPEARFISH      FAIR      43  36  75 E10       29.94S
WINNER         CLOUDY    50  39  66 SE10      29.96R
$$

SDZ004>011-016>023-039-040-280600-
NORTHEAST SOUTH DAKOTA

CITY           SKY/WX    TMP DP  RH WIND       PRES   REMARKS
ABERDEEN       CLOUDY    41  32  70 NE3       30.03R
WATERTOWN      CLOUDY    45  37  73 CALM      30.02R
BROOKINGS      CLOUDY    42  36  79 CALM      30.02R
SISSETON         N/A     35  32  88 N3        30.03R
$$

SDZ017-020-022-023-036>040-048>070-280600-
SOUTHEAST SOUTH DAKOTA

CITY           SKY/WX    TMP DP  RH WIND       PRES   REMARKS
SIOUX FALLS    PTCLDY    44  38  79 S5        30.03R
HURON          PTCLDY    42  37  82 E8        30.01R
CHAMBERLAIN    CLOUDY    48  39  70 E7        29.98R
MITCHELL       PTCLDY    40  35  83 SE6       30.01R
YANKTON        CLEAR     43  37  81 SE7       30.01S
$$

ABBREVIATIONS USED IN REMARKS
   TC - TEMPERATURE IN CELSIUS
  WCI - WIND CHILL INDEX
   HX - HEAT INDEX
  VSB - VISIBILITY





USA.gov is the U.S. government's official web portal to all federal, state and local government web resources and services.